Regional Weather Roundup
Issued by NWS Tiyan, Guam

Home | Current Version | Previous Version | Text Only | Print | Product List | Glossary On
Versions: 1 2 3 4 5 6 7 8 9 10 11 12 13 14 15 16 17 18 19 20 21 22 23 24 25 26 27 28 29 30 31 32 33 34 35 36 37 38 39 40 41 42 43 44 45 46 47 48 49 50
000
ASGM40 PGUM 290112
RWRGUM
WEATHER ROUNDUP FOR THE MARIANAS
NATIONAL WEATHER SERVICE TIYAN GU
1100 AM CHST TUE JUL 29 2014

GUZ001>004-290200-
MARIANA ISLANDS-

CITY           SKY/WX    TMP DP  RH WIND       PRES   REMARKS
GUAM AIRPORT   LGT RAIN  81  77  89 W16       29.87F
ANDERSEN AFB   LGT RAIN  81  77  89 NW12      29.85F
ROTA AIRPORT   PTSUNNY   81  77  89 NW14      29.84F
TINIAN AP      MOSUNNY   82  81  94 N7        29.81F HX  95
SAIPAN AP      MOSUNNY   84  79  84 N6        29.83S HX  96

$$




USA.gov is the U.S. government's official web portal to all federal, state and local government web resources and services.